This demonstration page uses our WeatherBlox Daily Observations layout. Learn more.

Left ArrowRight Arrow

Hourly Observations for August 8, 2022

Temp ( °F °C ) Dew Point ( °F °C ) Humidity (%) Winds ( mph kmh ) Pressure ( in mb ) Visibility ( mi km ) Precip ( " mm )
12:53 am 00:53 Clear 72 22.2 69 20.6 91 91 Calm 30.14 1021 10 16 0.00 0.00
1:53 am 01:53 Clear 72 22.2 69 20.6 91 91 Calm 30.14 1021 10 16 0.00 0.00
2:53 am 02:53 Clear 72 22.2 69 20.6 91 91 Calm 30.12 1020 10 16 0.00 0.00
3:53 am 03:53 Clear 71 21.7 69 20.6 94 94 Calm 30.11 1020 10 16 0.00 0.00
4:53 am 04:53 Clear 71 21.7 69 20.6 94 94 VRB 3 6 30.12 1020 10 16 0.00 0.00
5:53 am 05:53 Clear 71 21.7 69 20.6 94 94 Calm 30.12 1020 10 16 0.00 0.00
6:53 am 06:53 Partly Cloudy 71 21.7 69 20.6 94 94 Calm 30.13 1020 10 16 0.00 0.00
7:53 am 07:53 Partly Cloudy 72 22.2 69 20.6 91 91 SSW 5 7 30.14 1021 10 16 0.00 0.00
8:53 am 08:53 Sunny 75 23.9 70 21.1 84 84 W 3 6 30.16 1021 10 16 0.00 0.00
9:53 am 09:53 Sunny 77 25 70 21.1 79 79 Calm 30.16 1021 10 16 0.00 0.00
10:53 am 10:53 Sunny 80 26.7 71 21.7 74 74 Calm 30.16 1021 10 16 0.00 0.00
11:53 am 11:53 Sunny 83 28.3 70 21.1 65 65 Calm 30.16 1021 10 16 0.00 0.00
12:53 pm 12:53 Sunny 85 29.4 72 22.2 65 65 VRB 3 6 30.14 1021 10 16 0.00 0.00
1:53 pm 13:53 Sunny 86 30 72 22.2 63 63 SSW 8 13 30.12 1020 10 16 0.00 0.00
2:08 pm 14:08 Sunny with Nearby Thunderstorms 86 30 72 22.2 63 63 SSW 7 11 30.09 1019 10 16 0.00 0.00
2:53 pm 14:53 Partly Cloudy with Nearby Thunderstorms 89 31.7 72 22.2 57 57 N 6 9 30.09 1019 10 16 0.00 0.00
3:09 pm 15:09 Partly Cloudy 88 31.1 71 21.7 57 57 Calm 30.07 1018 10 16 0.00 0.00
3:47 pm 15:47 Mostly Cloudy with Thunderstorms 84 29 72 22 66 66 NNE 10 17 30.05 1018 10 16 0.00 0.00
3:53 pm 15:53 Mostly Cloudy with Thunderstorms 83 28.3 71 21.7 67 67 NNE 10 17 30.07 1018 10 16 0.00 0.00
4:07 pm 16:07 Partly Cloudy with Nearby Thunderstorms 84 28.9 72 22.2 67 67 N 6 9 30.04 1017 10 16 0.00 0.00
4:46 pm 16:46 Sunny 82 27.8 72 22.2 72 72 ENE 7 11 30.04 1017 10 16 0.00 0.00
4:53 pm 16:53 Sunny 83 28.3 72 22.2 70 70 NE 6 9 30.06 1018 10 16 0.00 0.00
5:53 pm 17:53 Sunny with Nearby Thunderstorms 84 28.9 71 21.7 65 65 VRB 3 6 30.06 1018 10 16 0.00 0.00
6:53 pm 18:53 Sunny 83 28.3 73 22.8 72 72 VRB 3 6 30.05 1018 10 16 0.00 0.00
7:53 pm 19:53 Sunny 81 27.2 72 22.2 74 74 Calm 30.04 1017 10 16 0.00 0.00
8:53 pm 20:53 Clear 79 26.1 71 21.7 77 77 SSW 3 6 30.07 1018 10 16 0.00 0.00
9:53 pm 21:53 Clear 77 25 69 20.6 77 77 SW 3 6 30.09 1019 10 16 0.00 0.00
10:53 pm 22:53 Clear 76 24.4 70 21.1 82 82 W 3 6 30.11 1020 10 16 0.00 0.00
11:53 pm 23:53 Mostly Clear 76 24.4 70 21.1 82 82 SSW 7 11 30.11 1020 10 16 0.00 0.00

Powered by AerisWeather